WHITEHOUSE STAT NJ US DIGIWX current weather conditions

sailwx.info

Wind from 280 at 6 knots

Air temperature 3.0° C
Visibility: greater than 8.7 NM
Dewpoint -6.0° C

Last reported at 2020-Jan-28 23:00 UTC.
Time now 2020-Jan-28 23:21 UTC

Location: N 40°39' W 074°46'.
View on Google Maps.

See reports from other nearby stations

  
Tides and Currents Weather Stations Pressure Air Temp Water Temp Dewpoint Dewpoint Depression Visibility Wind Speed Wind Dir Waves Ship Positions
date/time (UTC)wind fromknots sea level pressurealtimeterstation pressurevisibilityair tempwater tempwave heightnotes
2020-Jan-28 23:00 280 6 8.7 3.0
2020-Jan-28 22:55 030 4 8.7 3.0
2020-Jan-28 22:50 8.7 3.0
2020-Jan-28 22:45 260 3 8.7 3.0
2020-Jan-28 22:40 280 3 8.7 3.0
2020-Jan-28 22:35 180 3 8.7 3.0
2020-Jan-28 22:30 310 5 8.7 3.0
2020-Jan-28 22:25 280 5 8.7 3.0
2020-Jan-28 22:20 270 7 8.7 3.0
2020-Jan-28 22:15 280 5 8.7 3.0
2020-Jan-28 22:10 280 6 8.7 3.0
2020-Jan-28 22:05 270 4 8.7 3.0
2020-Jan-28 22:00 260 5 8.7 4.0
2020-Jan-28 21:55 260 3 8.7 4.0
2020-Jan-28 21:50 280 5 8.7 4.0
2020-Jan-28 21:45 270 6 8.7 4.0
2020-Jan-28 21:40 270 4 8.7 4.0
2020-Jan-28 21:35 270 6 8.7 4.0
2020-Jan-28 21:30 270 5 8.7 4.0
2020-Jan-28 21:25 270 6 8.7 4.0
2020-Jan-28 21:20 270 5 8.7 4.0
2020-Jan-28 21:15 290 8 8.7 4.0
2020-Jan-28 21:10 8.7 4.0
2020-Jan-28 21:05 290 5 8.7 4.0
2020-Jan-28 21:00 320 5 8.7 4.0
2020-Jan-28 20:55 310 6 8.7 4.0
2020-Jan-28 20:50 310 8 8.7 4.0
2020-Jan-28 20:45 290 7 8.7 4.0
2020-Jan-28 20:40 300 5 8.7 4.0
2020-Jan-28 20:35 290 4 8.7 4.0
2020-Jan-28 20:30 280 4 8.7 4.0
2020-Jan-28 20:25 290 5 8.7 4.0
2020-Jan-28 20:20 290 4 8.7 4.0
2020-Jan-28 20:15 280 6 8.7 4.0
2020-Jan-28 20:05 300 5 8.7 4.0
2020-Jan-28 20:00 280 5 8.7 4.0
2020-Jan-28 19:55 290 3 8.7 4.0
2020-Jan-28 19:50 250 4 8.7 4.0
2020-Jan-28 19:45 270 4 8.7 4.0
2020-Jan-28 19:40 300 5 8.7 4.0
2020-Jan-28 19:35 300 5 8.7 4.0
2020-Jan-28 19:30 290 3 8.7 4.0
2020-Jan-28 19:25 280 3 8.7 4.0
2020-Jan-28 19:20 280 5 8.7 4.0
2020-Jan-28 19:15 290 5 8.7 4.0
2020-Jan-28 19:10 290 6 8.7 4.0
2020-Jan-28 19:05 290 4 8.7 4.0
2020-Jan-28 19:00 300 6 8.7 4.0
2020-Jan-28 18:55 090 5 8.7 4.0
2020-Jan-28 18:50 270 6 8.7 4.0
2020-Jan-28 18:45 290 6 8.7 4.0
2020-Jan-28 18:40 8.7 4.0
2020-Jan-28 18:35 280 5 8.7 4.0
2020-Jan-28 18:30 310 3 8.7 4.0
2020-Jan-28 18:25 310 5 8.7 4.0
2020-Jan-28 18:20 290 6 8.7 4.0
2020-Jan-28 18:15 260 8 8.7 4.0
2020-Jan-28 18:05 290 6 gusting 14 8.7 4.0
2020-Jan-28 18:00 270 6 8.7 4.0
2020-Jan-28 17:40 100 6 8.7 4.0
2020-Jan-28 17:35 280 6 8.7 4.0
2020-Jan-28 17:30 280 7 8.7 4.0
2020-Jan-28 17:25 300 3 8.7 4.0
2020-Jan-28 17:20 310 6 gusting 16 8.7 4.0
2020-Jan-28 17:15 280 8 gusting 16 8.7 4.0
2020-Jan-28 17:05 8.7 4.0
2020-Jan-28 17:00 300 3 gusting 16 8.7 4.0
2020-Jan-28 16:55 300 5 gusting 16 8.7 4.0
2020-Jan-28 16:50 310 8 gusting 14 8.7 5.0
2020-Jan-28 16:45 280 9 gusting 16 8.7 5.0
2020-Jan-28 16:40 080 8 gusting 16 8.7 5.0
2020-Jan-28 16:35 270 8 gusting 17 8.7 5.0
2020-Jan-28 16:30 270 9 gusting 17 8.7 5.0
2020-Jan-28 16:25 290 6 gusting 15 8.7 5.0
2020-Jan-28 16:20 300 7 gusting 16 8.7 5.0
2020-Jan-28 16:15 280 8 gusting 16 8.7 5.0
2020-Jan-28 16:05 300 6 gusting 16 8.7 5.0
2020-Jan-28 16:00 310 7 gusting 20 8.7 5.0
2020-Jan-28 15:55 280 11 gusting 20 8.7 5.0
2020-Jan-28 15:50 280 9 gusting 19 8.7 6.0
2020-Jan-28 15:45 320 8 8.7 6.0
2020-Jan-28 15:40 300 7 gusting 16 8.7 5.0
2020-Jan-28 15:35 280 7 gusting 17 8.7 5.0
2020-Jan-28 15:30 310 6 gusting 17 8.7 5.0
2020-Jan-28 15:25 270 9 gusting 17 8.7 5.0
2020-Jan-28 15:20 280 9 gusting 16 8.7 5.0
2020-Jan-28 15:15 260 10 gusting 16 8.7 5.0
2020-Jan-28 15:05 280 4 8.7 5.0
2020-Jan-28 15:00 260 4 8.7 5.0
2020-Jan-28 14:55 050 7 gusting 14 8.7 5.0
2020-Jan-28 14:50 290 7 gusting 14 8.7 4.0
2020-Jan-28 14:45 290 6 8.7 4.0
2020-Jan-28 14:40 300 8 gusting 14 8.7 4.0
2020-Jan-28 14:35 290 9 gusting 14 8.7 4.0
2020-Jan-28 14:30 290 4 8.7 4.0
2020-Jan-28 14:25 300 5 8.7 4.0
2020-Jan-28 14:20 270 6 8.7 4.0
2020-Jan-28 14:15 280 8 8.7 4.0
2020-Jan-28 14:05 280 7 8.7 4.0
2020-Jan-28 14:00 280 7 8.7 3.0
2020-Jan-28 13:55 300 6 8.7 3.0
2020-Jan-28 13:50 280 7 8.7 3.0
2020-Jan-28 13:45 290 7 8.7 3.0
2020-Jan-28 13:40 220 4 8.7 3.0
2020-Jan-28 13:35 250 8 8.7 3.0
2020-Jan-28 13:30 280 5 8.7 3.0
2020-Jan-28 13:25 270 6 8.7 3.0
2020-Jan-28 13:20 260 5 8.7 3.0
2020-Jan-28 13:15 260 7 8.7 2.0
2020-Jan-28 13:05 270 6 8.7 2.0
2020-Jan-28 13:00 270 6 8.7 2.0
2020-Jan-28 12:55 270 6 8.7 2.0
2020-Jan-28 12:50 260 5 8.7 2.0
2020-Jan-28 12:45 260 5 8.7 1.0
2020-Jan-28 12:40 270 3 8.7 1.0
2020-Jan-28 12:35 260 3 8.7 1.0
2020-Jan-28 12:30 280 3 8.7 1.0
2020-Jan-28 12:25 8.7 1.0
2020-Jan-28 12:20 8.7 1.0
2020-Jan-28 12:15 8.7 1.0
2020-Jan-28 12:05 8.7 1.0
2020-Jan-28 12:00 8.7 2.0
2020-Jan-28 11:40 8.7 2.0
2020-Jan-28 11:35 8.7 2.0
2020-Jan-28 11:30 8.7 2.0
2020-Jan-28 11:25 8.7 2.0
2020-Jan-28 11:20 8.7 2.0
2020-Jan-28 11:15 8.7 2.0
2020-Jan-28 11:05 8.7 2.0
2020-Jan-28 11:00 8.7 2.0
2020-Jan-28 10:55 8.7 2.0
2020-Jan-28 10:50 8.7 3.0
2020-Jan-28 10:45 240 3 8.7 3.0
2020-Jan-28 10:40 280 4 8.7 3.0
2020-Jan-28 10:35 270 4 8.7 3.0
2020-Jan-28 10:30 8.7 3.0
2020-Jan-28 10:25 280 4 8.7 3.0
2020-Jan-28 10:20 260 3 8.7 3.0
2020-Jan-28 10:15 270 3 8.7 3.0
2020-Jan-28 10:05 280 3 8.7 3.0
2020-Jan-28 10:00 180 3 8.7 3.0
2020-Jan-28 09:55 280 4 8.7 3.0
2020-Jan-28 09:50 8.7 3.0
2020-Jan-28 09:45 270 4 8.7 3.0
2020-Jan-28 09:40 280 6 8.7 3.0
2020-Jan-28 09:35 8.7 3.0
2020-Jan-28 09:30 260 4 8.7 3.0
2020-Jan-28 09:25 270 3 8.7 3.0
2020-Jan-28 09:20 270 3 8.7 3.0
2020-Jan-28 09:15 260 5 8.7 3.0
2020-Jan-28 09:10 8.7 3.0
2020-Jan-28 09:05 260 4 8.7 3.0
2020-Jan-28 09:00 260 4 8.7 3.0
2020-Jan-28 08:55 260 3 8.7 3.0
2020-Jan-28 08:50 270 3 8.7 3.0
2020-Jan-28 08:45 270 4 8.7 3.0
2020-Jan-28 08:40 280 3 8.7 3.0
2020-Jan-28 08:35 280 3 8.7 3.0
2020-Jan-28 08:30 8.7 3.0
2020-Jan-28 08:25 290 4 8.7 3.0
2020-Jan-28 08:20 280 4 8.7 3.0
2020-Jan-28 08:15 310 5 8.7 3.0
2020-Jan-28 08:10 270 4 8.7 3.0
2020-Jan-28 08:05 290 5 8.7 3.0
2020-Jan-28 08:00 280 3 8.7 3.0
2020-Jan-28 07:55 260 4 8.7 3.0
2020-Jan-28 07:50 270 5 8.7 3.0
2020-Jan-28 07:45 8.7 3.0
2020-Jan-28 07:40 8.7 3.0
2020-Jan-28 07:35 260 3 8.7 3.0
2020-Jan-28 07:30 8.7 3.0
2020-Jan-28 07:25 8.7 3.0
2020-Jan-28 07:20 8.7 3.0
2020-Jan-28 07:15 8.7 3.0
2020-Jan-28 07:05 8.7 3.0
2020-Jan-28 07:00 260 3 8.7 3.0
2020-Jan-28 06:55 8.7 3.0
2020-Jan-28 06:50 8.7 3.0
2020-Jan-28 06:45 290 3 8.7 3.0
2020-Jan-28 06:40 8.7 3.0
2020-Jan-28 06:35 300 3 8.7 3.0
2020-Jan-28 06:30 300 4 8.7 3.0
2020-Jan-28 06:25 330 4 8.7 3.0
2020-Jan-28 06:20 300 3 8.7 3.0
2020-Jan-28 06:15 300 4 8.7 3.0
2020-Jan-28 06:05 300 3 8.7 3.0
2020-Jan-28 06:00 310 5 8.7 3.0
2020-Jan-28 05:40 300 4 8.7 3.0
2020-Jan-28 05:35 290 3 8.7 3.0
2020-Jan-28 05:30 300 3 8.7 3.0
2020-Jan-28 05:25 290 4 8.7 3.0
2020-Jan-28 05:20 8.7 3.0
2020-Jan-28 05:15 8.7 3.0
2020-Jan-28 05:10 8.7 3.0
2020-Jan-28 05:05 8.7 3.0
2020-Jan-28 05:00 8.7 4.0
2020-Jan-28 04:55 8.7 4.0
2020-Jan-28 04:50 8.7 4.0
2020-Jan-28 04:45 8.7 4.0
2020-Jan-28 04:40 8.7 4.0
2020-Jan-28 04:35 8.7 4.0
2020-Jan-28 04:30 8.7 4.0
2020-Jan-28 04:25 8.7 4.0
2020-Jan-28 04:20 8.7 4.0
2020-Jan-28 04:15 8.7 4.0
2020-Jan-28 04:10 8.7 4.0
2020-Jan-28 04:05 8.7 4.0
2020-Jan-28 04:00 8.7 4.0
2020-Jan-28 03:55 8.7 4.0
2020-Jan-28 03:50 270 3 8.7 4.0
2020-Jan-28 03:45 280 3 8.7 4.0
2020-Jan-28 03:40 280 3 8.7 4.0
2020-Jan-28 03:35 290 4 8.7 4.0
2020-Jan-28 03:30 280 4 8.7 4.0
2020-Jan-28 03:25 280 3 8.7 4.0
2020-Jan-28 03:20 280 3 8.7 4.0
2020-Jan-28 03:15 270 5 8.7 4.0
2020-Jan-28 03:05 270 5 8.7 4.0
2020-Jan-28 03:00 270 3 8.7 4.0
2020-Jan-28 02:55 270 4 8.7 4.0
2020-Jan-28 02:50 270 3 8.7 4.0
2020-Jan-28 02:45 280 4 8.7 4.0
2020-Jan-28 02:40 8.7 4.0
2020-Jan-28 02:35 8.7 4.0
2020-Jan-28 02:30 8.7 4.0
2020-Jan-28 02:25 8.7 4.0
2020-Jan-28 02:20 270 3 8.7 4.0
2020-Jan-28 02:15 8.7 4.0
2020-Jan-28 02:10 8.7 4.0
2020-Jan-28 02:05 8.7 4.0
2020-Jan-28 02:00 260 3 8.7 4.0
2020-Jan-28 01:55 250 3 8.7 4.0
2020-Jan-28 01:50 8.7 4.0
2020-Jan-28 01:45 250 3 8.7 4.0
2020-Jan-28 01:40 8.7 4.0
2020-Jan-28 01:35 8.7 4.0
2020-Jan-28 01:30 240 3 8.7 4.0
2020-Jan-28 01:25 260 3 8.7 4.0
2020-Jan-28 01:20 8.7 4.0
2020-Jan-28 01:15 260 3 8.7 4.0
2020-Jan-28 01:10 8.7 5.0
2020-Jan-28 01:05 8.7 5.0
2020-Jan-28 01:00 8.7 4.0
2020-Jan-28 00:55 8.7 4.0
2020-Jan-28 00:50 230 3 8.7 4.0
2020-Jan-28 00:45 8.7 5.0
2020-Jan-28 00:40 8.7 5.0
2020-Jan-28 00:35 8.7 5.0
2020-Jan-28 00:30 8.7 5.0
2020-Jan-28 00:25 240 3 8.7 5.0
2020-Jan-28 00:20 250 3 8.7 5.0
2020-Jan-28 00:15 250 3 8.7 5.0
2020-Jan-28 00:10 8.7 5.0
2020-Jan-28 00:05 8.7 5.0
2020-Jan-28 00:00 250 3 8.7 5.0
2020-Jan-27 23:40 8.7 5.0
2020-Jan-27 23:35 8.7 5.0
2020-Jan-27 23:30 8.7 5.0
2020-Jan-27 23:25 8.7 5.0
2020-Jan-27 23:20 8.7 5.0
2020-Jan-27 23:15 250 3 8.7 5.0
2020-Jan-27 23:10 8.7 6.0
2020-Jan-27 23:05 270 3 8.7 6.0
2020-Jan-27 23:00 8.7 6.0
2020-Jan-27 22:55 8.7 6.0
2020-Jan-27 22:50 250 4 8.7 6.0
2020-Jan-27 22:45 260 4 8.7 6.0
2020-Jan-27 22:40 8.7 6.0
2020-Jan-27 22:35 260 4 8.7 6.0
2020-Jan-27 22:30 250 4 8.7 6.0
2020-Jan-27 22:25 8.7 6.0
2020-Jan-27 22:20 260 5 8.7 6.0
2020-Jan-27 22:15 260 5 8.7 6.0
2020-Jan-27 22:10 8.7 6.0
2020-Jan-27 22:05 260 4 8.7 6.0
2020-Jan-27 22:00 260 3 8.7 6.0
2020-Jan-27 21:55 270 4 8.7 6.0
2020-Jan-27 21:50 250 4 8.7 6.0
2020-Jan-27 21:45 140 5 8.7 6.0
2020-Jan-27 21:40 280 4 8.7 6.0
2020-Jan-27 21:35 280 4 8.7 6.0
2020-Jan-27 21:30 260 3 8.7 6.0
2020-Jan-27 21:25 260 4 8.7 6.0
2020-Jan-27 21:20 260 5 8.7 6.0
2020-Jan-27 21:15 250 6 8.7 6.0
2020-Jan-27 21:10 260 4 8.7 6.0
2020-Jan-27 21:05 240 5 8.7 6.0
2020-Jan-27 21:00 020 5 8.7 6.0
2020-Jan-27 20:55 240 4 8.7 6.0
2020-Jan-27 20:50 240 3 8.7 6.0
2020-Jan-27 20:45 260 4 8.7 6.0
2020-Jan-27 20:40 240 5 8.7 6.0
2020-Jan-27 20:35 240 4 8.7 6.0
2020-Jan-27 20:30 250 5 8.7 6.0
2020-Jan-27 20:25 250 6 8.7 6.0
2020-Jan-27 20:20 260 6 8.7 6.0
2020-Jan-27 20:15 270 5 8.7 6.0
2020-Jan-27 20:10 250 5 8.7 6.0
2020-Jan-27 20:05 250 6 8.7 6.0
2020-Jan-27 20:00 250 4 8.7 6.0
2020-Jan-27 19:55 260 3 8.7 6.0
2020-Jan-27 19:50 250 6 8.7 7.0
2020-Jan-27 19:45 260 5 8.7 6.0
2020-Jan-27 19:40 250 6 8.7 6.0
2020-Jan-27 19:35 270 7 8.7 7.0
2020-Jan-27 19:30 260 3 8.7 7.0
2020-Jan-27 19:25 8.7 7.0
2020-Jan-27 19:20 260 6 8.7 7.0
2020-Jan-27 19:15 260 4 8.7 7.0
2020-Jan-27 19:10 280 4 8.7 7.0
2020-Jan-27 19:05 270 5 8.7 6.0
2020-Jan-27 19:00 270 5 8.7 6.0
2020-Jan-27 18:55 260 4 8.7 6.0
2020-Jan-27 18:50 270 3 8.7 6.0
2020-Jan-27 18:45 270 5 8.7 6.0
2020-Jan-27 18:40 260 6 8.7 6.0
2020-Jan-27 18:35 270 5 8.7 6.0
2020-Jan-27 18:30 260 7 8.7 6.0
2020-Jan-27 18:25 270 7 8.7 6.0
2020-Jan-27 18:20 270 5 8.7 6.0
2020-Jan-27 18:15 260 5 8.7 6.0
2020-Jan-27 18:05 250 5 8.7 6.0
2020-Jan-27 18:00 240 5 8.7 6.0
2020-Jan-27 17:40 260 5 8.7 6.0
2020-Jan-27 17:35 230 4 8.7 6.0
2020-Jan-27 17:30 220 7 8.7 6.0
2020-Jan-27 17:25 250 5 8.7 6.0
2020-Jan-27 17:20 240 6 8.7 6.0
2020-Jan-27 17:15 240 6 8.7 6.0
2020-Jan-27 17:05 240 5 8.7 6.0
2020-Jan-27 17:00 240 5 8.7 6.0
2020-Jan-27 16:55 260 5 8.7 6.0
2020-Jan-27 16:50 230 6 8.7 6.0
2020-Jan-27 16:45 140 4 8.7 6.0
2020-Jan-27 16:40 230 7 8.7 6.0
2020-Jan-27 16:35 240 6 8.7 6.0
2020-Jan-27 16:30 240 5 8.7 6.0
2020-Jan-27 16:25 250 7 8.7 6.0
2020-Jan-27 16:20 250 5 8.7 6.0
2020-Jan-27 16:15 260 4 8.7 6.0
2020-Jan-27 16:05 8.7 6.0
2020-Jan-27 16:00 260 5 8.7 6.0
2020-Jan-27 15:55 230 6 8.7 6.0
2020-Jan-27 15:50 220 7 8.7 6.0
2020-Jan-27 15:45 220 5 8.7 6.0
2020-Jan-27 15:40 220 5 8.7 5.0
2020-Jan-27 15:35 210 4 8.7 5.0
2020-Jan-27 15:30 250 4 8.7 5.0
2020-Jan-27 15:25 260 7 8.7 5.0
2020-Jan-27 15:20 250 6 8.7 4.0
2020-Jan-27 15:15 240 7 8.7 4.0
2020-Jan-27 15:05 220 4 8.7 4.0
2020-Jan-27 15:00 250 5 8.7 4.0
2020-Jan-27 14:55 230 5 8.7 4.0
2020-Jan-27 14:50 190 3 8.7 4.0
2020-Jan-27 14:45 240 5 8.7 4.0
2020-Jan-27 14:40 240 4 8.7 4.0
2020-Jan-27 14:35 240 3 8.7 4.0
2020-Jan-27 14:30 190 3 8.7 4.0
2020-Jan-27 14:25 8.7 4.0
2020-Jan-27 14:20 8.7 4.0
2020-Jan-27 14:15 8.7 4.0
2020-Jan-27 14:05 8.7 3.0
2020-Jan-27 14:00 8.7 3.0
2020-Jan-27 13:40 200 4 8.7 3.0
2020-Jan-27 13:35 190 3 8.7 3.0
2020-Jan-27 13:30 8.7 3.0
2020-Jan-27 13:25 8.7 3.0
2020-Jan-27 13:20 190 3 8.7 3.0
2020-Jan-27 13:15 8.7 3.0
2020-Jan-27 13:05 8.7 3.0
2020-Jan-27 13:00 8.7 3.0
2020-Jan-27 12:55 8.7 2.0
2020-Jan-27 12:50 8.7 2.0
2020-Jan-27 12:45 180 4 8.7 2.0
2020-Jan-27 12:40 8.7 2.0
2020-Jan-27 12:35 070 3 8.7 2.0
2020-Jan-27 12:30 8.7 2.0
2020-Jan-27 12:25 8.7 2.0
2020-Jan-27 12:20 8.7 2.0
2020-Jan-27 12:15 8.7 2.0
2020-Jan-27 12:05 190 3 8.7 2.0
2020-Jan-27 12:00 8.7 2.0
2020-Jan-27 11:40 8.7 2.0
2020-Jan-27 11:35 8.7 2.0
2020-Jan-27 11:30 8.7 2.0
2020-Jan-27 11:25 8.7 2.0
2020-Jan-27 11:20 8.7 2.0
2020-Jan-27 11:15 8.7 2.0
2020-Jan-27 11:10 8.7 2.0
2020-Jan-27 11:05 210 4 8.7 2.0
2020-Jan-27 11:00 8.7 2.0
2020-Jan-27 10:55 8.7 2.0
2020-Jan-27 10:50 8.7 2.0
2020-Jan-27 10:45 8.7 2.0
2020-Jan-27 10:40 8.7 2.0
2020-Jan-27 10:35 8.7 2.0
2020-Jan-27 10:30 8.7 2.0
2020-Jan-27 10:25 8.7 2.0
2020-Jan-27 10:20 8.7 2.0
2020-Jan-27 10:15 200 3 8.7 2.0
2020-Jan-27 10:05 8.7 2.0
2020-Jan-27 10:00 220 3 8.7 2.0
2020-Jan-27 09:55 8.7 2.0
2020-Jan-27 09:50 8.7 2.0
2020-Jan-27 09:45 8.7 2.0
2020-Jan-27 09:40 8.7 2.0
2020-Jan-27 09:35 8.7 2.0
2020-Jan-27 09:30 8.7 2.0
2020-Jan-27 09:25 8.7 2.0
2020-Jan-27 09:20 8.7 2.0
2020-Jan-27 09:15 8.7 2.0
2020-Jan-27 09:05 8.7 2.0
2020-Jan-27 09:00 8.7 2.0
2020-Jan-27 08:55 8.7 2.0
2020-Jan-27 08:50 8.7 2.0
2020-Jan-27 08:45 8.7 2.0
2020-Jan-27 08:40 8.7 2.0
2020-Jan-27 08:35 8.7 2.0
2020-Jan-27 08:30 8.7 2.0
2020-Jan-27 08:25 8.7 2.0
2020-Jan-27 08:20 8.7 2.0
2020-Jan-27 08:15 8.7 2.0
2020-Jan-27 08:05 8.7 2.0
2020-Jan-27 08:00 8.7 2.0
2020-Jan-27 07:55 240 3 8.7 2.0
2020-Jan-27 07:50 8.7 2.0
2020-Jan-27 07:45 8.7 2.0
2020-Jan-27 07:40 8.7 2.0
2020-Jan-27 07:35 8.7 2.0
2020-Jan-27 07:30 8.7 3.0
2020-Jan-27 07:25 8.7 3.0
2020-Jan-27 07:20 240 3 8.7 3.0
2020-Jan-27 07:15 8.7 3.0
2020-Jan-27 07:10 210 3 8.7 3.0
2020-Jan-27 07:05 8.7 3.0
2020-Jan-27 07:00 210 3 8.7 3.0
2020-Jan-27 06:55 8.7 3.0
2020-Jan-27 06:50 8.7 3.0
2020-Jan-27 06:45 230 4 8.7 3.0
2020-Jan-27 06:40 220 3 8.7 3.0
2020-Jan-27 06:35 230 3 8.7 3.0
2020-Jan-27 06:30 250 3 8.7 3.0
2020-Jan-27 06:25 240 3 8.7 3.0
2020-Jan-27 06:20 220 3 8.7 3.0
2020-Jan-27 06:15 220 4 8.7 2.0
2020-Jan-27 06:05 210 3 8.7 2.0
2020-Jan-27 06:00 8.7 2.0
2020-Jan-27 05:40 8.7 2.0
2020-Jan-27 05:35 8.7 2.0
2020-Jan-27 05:30 8.7 2.0
2020-Jan-27 05:25 8.7 2.0
2020-Jan-27 05:20 8.7 2.0
2020-Jan-27 05:15 8.7 2.0
2020-Jan-27 05:05 8.7 2.0
2020-Jan-27 05:00 8.7 2.0
2020-Jan-27 04:55 8.7 2.0
2020-Jan-27 04:50 8.7 2.0
2020-Jan-27 04:45 8.7 2.0
2020-Jan-27 04:40 8.7 3.0
2020-Jan-27 04:35 8.7 3.0
2020-Jan-27 04:30 220 4 8.7 3.0
2020-Jan-27 04:25 230 3 8.7 3.0
2020-Jan-27 04:20 8.7 3.0
2020-Jan-27 04:15 8.7 3.0
2020-Jan-27 04:10 210 3 8.7 3.0
2020-Jan-27 04:05 210 3 8.7 3.0
2020-Jan-27 04:00 8.7 3.0
2020-Jan-27 03:55 8.7 3.0
2020-Jan-27 03:50 8.7 3.0
2020-Jan-27 03:45 8.7 3.0
2020-Jan-27 03:40 8.7 3.0
2020-Jan-27 03:35 220 3 8.7 3.0
2020-Jan-27 03:30 8.7 3.0
2020-Jan-27 03:25 8.7 3.0
2020-Jan-27 03:20 8.7 3.0
2020-Jan-27 03:15 8.7 3.0
2020-Jan-27 03:10 8.7 3.0
2020-Jan-27 03:05 250 3 8.7 3.0
2020-Jan-27 03:00 8.7 3.0
2020-Jan-27 02:55 8.7 3.0
2020-Jan-27 02:50 8.7 3.0
2020-Jan-27 02:45 250 4 8.7 3.0
2020-Jan-27 02:40 8.7 3.0
2020-Jan-27 02:35 250 3 8.7 3.0
2020-Jan-27 02:30 260 5 8.7 3.0
2020-Jan-27 02:25 250 4 8.7 3.0
2020-Jan-27 02:20 250 4 8.7 3.0
2020-Jan-27 02:15 250 3 8.7 3.0
2020-Jan-27 02:10 250 4 8.7 3.0
2020-Jan-27 02:05 240 3 8.7 3.0
2020-Jan-27 02:00 250 4 8.7 3.0
2020-Jan-27 01:55 250 5 8.7 3.0
2020-Jan-27 01:50 260 3 8.7 3.0
2020-Jan-27 01:45 260 3 8.7 3.0
2020-Jan-27 01:40 8.7 3.0
2020-Jan-27 01:35 250 4 8.7 3.0
2020-Jan-27 01:30 260 3 8.7 3.0
2020-Jan-27 01:25 250 4 8.7 3.0
2020-Jan-27 01:20 270 4 8.7 3.0
2020-Jan-27 01:15 310 3 8.7 3.0
2020-Jan-27 01:10 260 4 8.7 3.0
2020-Jan-27 01:05 8.7 3.0
2020-Jan-27 01:00 8.7 3.0
2020-Jan-27 00:55 8.7 3.0
2020-Jan-27 00:50 8.7 3.0
2020-Jan-27 00:45 260 4 8.7 3.0
2020-Jan-27 00:40 270 3 8.7 4.0
2020-Jan-27 00:35 260 4 8.7 4.0
2020-Jan-27 00:30 260 3 8.7 4.0
2020-Jan-27 00:25 270 4 8.7 4.0
2020-Jan-27 00:20 8.7 4.0
2020-Jan-27 00:15 260 4 8.7 4.0
2020-Jan-27 00:10 250 3 8.7 4.0
2020-Jan-27 00:05 280 3 8.7 4.0
2020-Jan-27 00:00 250 5 8.7 4.0
2020-Jan-26 23:40 250 4 8.7 4.0
2020-Jan-26 23:35 260 4 8.7 4.0
2020-Jan-26 23:30 240 5 8.7 4.0
2020-Jan-26 23:25 250 5 8.7 4.0
2020-Jan-26 23:20 250 4 8.7 4.0
2020-Jan-26 23:15 270 4 8.7 4.0
2020-Jan-26 23:10 260 4 8.7 4.0
2020-Jan-26 23:05 250 3 8.7 4.0
2020-Jan-26 23:00 250 5 8.7 4.0